Location: Chmeln�
(49.6483°N, 14.9871°E)
Time: 15:07:14
(UTC+00:00)

SPOT 5 - Pass Details

Date: 18 September 2020
Orbit: 623 x 815 km, 98.3° (Epoch: 24 October)

Event Time Altitude Azimuth Distance (km) Brightness Sun altitude
Exits shadow 20:40:08 52° 342° (NNW) 980 3.7 -31.4°
Drops below altitude 10° 20:44:08 10° 345° (NNW) 2,393 6.3 -31.8°
Sets 20:46:31 0° 346° (NNW) 3,341 7.2 -32.1°
